Weather History for KJZI - November, 2012

Change the Weather History Date:

Saturday, November 17, 2012

  Actual Average (KCHS) Record (KCHS)
Temperature  
Mean Temperature 50 °F 58 °F  
Max Temperature 57 °F 70 °F 84 °F (1964)
Min Temperature 44 °F 47 °F 29 °F (1967)
Degree Days  
Heating Degree Days 14 8  
Month to date heating degree days 102  
Since 1 July heating degree days 171  
Cooling Degree Days 0 1  
Month to date cooling degree days 22  
Year to date cooling degree days 2286  
Moisture  
Dew Point 43 °F    
Average Humidity 73    
Maximum Humidity 81    
Minimum Humidity 59    
Precipitation  
Precipitation 0.00 in 0.08 in 0.56 in (1986)
Month to date precipitation 1.39  
Year to date precipitation 46.88  
Sea Level Pressure  
Sea Level Pressure 30.31 in    
Wind  
Wind Speed 10 mph (NNE)    
Max Wind Speed 16 mph    
Max Gust Speed 24 mph    
Visibility 10 miles    
Events      
T = Trace of Precipitation, MM = Missing Value Source: NWS Daily Summary

Daily Weather History Graph

Daily Weather History Graph

Search for Another Location

Airport or City:

Trip Planner

Search our weather history database for the weather conditions in past years. The results will help you decide how hot, cold, wet, or windy it might be!

Date:

Astronomy

Nov. 17, 2012 Rise Set
Actual Time 6:52 AM EST 5:17 PM EST
Civil Twilight 6:26 AM EST 5:43 PM EST
Nautical Twilight 5:56 AM EST 6:13 PM EST
Astronomical Twilight 5:26 AM EST 6:43 PM EST
Moon 10:35 AM EST (11/17) 9:24 PM EST (11/17)
Length of Visible Light 11h 17m
Length of Day
10h 25m
Waxing Crescent, 20% of the Moon is Illuminated
Nov 17
Waxing Crescent
Nov 20
First Quarter
Nov 28
Full
Dec 6
Last Quarter
Dec 13
New

Hourly Weather History & Observations

Time (EST) Temp. Windchill Dew Point Humidity Pressure Visibility Wind Dir Wind Speed Gust Speed Precip Events Conditions
12:15 AM 53.6 °F - 42.8 °F 67% 30.28 in 10.0 mi NNE 12.7 mph - 0.00 in   Clear
12:35 AM 51.8 °F - 42.8 °F 71% 30.29 in 10.0 mi NNE 10.4 mph - 0.00 in   Clear
12:55 AM 51.8 °F - 42.8 °F 71% 30.29 in 10.0 mi NNE 9.2 mph - 0.00 in   Clear
1:15 AM 51.8 °F - 42.8 °F 71% 30.30 in 10.0 mi NNE 8.1 mph - 0.00 in   Clear
1:35 AM 50.0 °F - 42.8 °F 76% 30.29 in 10.0 mi NNE 6.9 mph - 0.00 in   Clear
1:55 AM 50.0 °F - 41.0 °F 71% 30.29 in 10.0 mi NNE 6.9 mph - 0.00 in   Clear
2:15 AM 48.2 °F - 41.0 °F 76% 30.30 in 10.0 mi NNE 8.1 mph - 0.00 in   Clear
2:55 AM 48.2 °F - 41.0 °F 76% 30.29 in 10.0 mi North 8.1 mph - 0.00 in   Clear
3:15 AM 46.4 °F 41.5 °F 41.0 °F 81% 30.28 in 10.0 mi North 10.4 mph - 0.00 in   Clear
3:35 AM 46.4 °F 42.9 °F 41.0 °F 81% 30.28 in 10.0 mi North 6.9 mph - 0.00 in   Clear
3:55 AM 46.4 °F 42.4 °F 41.0 °F 81% 30.29 in 10.0 mi North 8.1 mph - 0.00 in   Clear
4:15 AM 46.4 °F 41.9 °F 39.2 °F 76% 30.28 in 10.0 mi North 9.2 mph - 0.00 in   Clear
4:35 AM 46.4 °F 42.4 °F 39.2 °F 76% 30.29 in 10.0 mi North 8.1 mph - 0.00 in   Clear
4:55 AM 44.6 °F 41.4 °F 39.2 °F 81% 30.29 in 10.0 mi North 5.8 mph - 0.00 in   Clear
5:15 AM 44.6 °F 40.2 °F 39.2 °F 81% 30.30 in 10.0 mi NNE 8.1 mph - 0.00 in   Clear
5:35 AM 44.6 °F 40.2 °F 39.2 °F 81% 30.31 in 10.0 mi North 8.1 mph - 0.00 in   Clear
5:55 AM 44.6 °F 39.7 °F 37.4 °F 76% 30.31 in 10.0 mi North 9.2 mph - 0.00 in   Clear
6:15 AM 44.6 °F 39.7 °F 37.4 °F 76% 30.30 in 10.0 mi North 9.2 mph - 0.00 in   Clear
6:35 AM 44.6 °F 38.8 °F 37.4 °F 76% 30.30 in 10.0 mi North 11.5 mph 17.3 mph 0.00 in   Clear
6:55 AM 44.6 °F 38.4 °F 37.4 °F 76% 30.31 in 10.0 mi North 12.7 mph - 0.00 in   Clear
7:15 AM 44.6 °F 38.4 °F 37.4 °F 76% 30.31 in 10.0 mi North 12.7 mph 17.3 mph 0.00 in   Clear
7:35 AM 44.6 °F 38.8 °F 37.4 °F 76% 30.32 in 10.0 mi North 11.5 mph 18.4 mph 0.00 in   Clear
7:55 AM 44.6 °F 39.2 °F 39.2 °F 81% 30.34 in 10.0 mi North 10.4 mph - 0.00 in   Clear
8:15 AM 46.4 °F 42.4 °F 39.2 °F 76% 30.34 in 9.0 mi North 8.1 mph - 0.00 in   Clear
8:35 AM 46.4 °F 41.5 °F 39.2 °F 76% 30.35 in 10.0 mi North 10.4 mph - 0.00 in   Clear
8:55 AM 46.4 °F 40.7 °F 39.2 °F 76% 30.34 in 9.0 mi North 12.7 mph 16.1 mph 0.00 in   Clear
9:15 AM 48.2 °F - 41.0 °F 76% 30.34 in 9.0 mi North 12.7 mph - 0.00 in   Scattered Clouds
9:35 AM 48.2 °F - 41.0 °F 76% 30.34 in 9.0 mi North 16.1 mph 21.9 mph 0.00 in   Scattered Clouds
9:55 AM 50.0 °F - 41.0 °F 71% 30.34 in 10.0 mi NNE 15.0 mph 19.6 mph 0.00 in   Partly Cloudy
10:15 AM 50.0 °F - 41.0 °F 71% 30.35 in 10.0 mi NNE 11.5 mph - 0.00 in   Clear
10:35 AM 51.8 °F - 41.0 °F 67% 30.36 in 10.0 mi North 12.7 mph - 0.00 in   Partly Cloudy
10:55 AM 53.6 °F - 41.0 °F 62% 30.34 in 10.0 mi NNE 12.7 mph - 0.00 in   Scattered Clouds
11:15 AM 53.6 °F - 41.0 °F 62% 30.34 in 10.0 mi NNE 12.7 mph - 0.00 in   Partly Cloudy
12:35 PM 57.2 °F - 42.8 °F 59% 30.32 in 10.0 mi NNE 13.8 mph 19.6 mph 0.00 in   Partly Cloudy
12:55 PM 55.4 °F - 42.8 °F 63% 30.30 in 10.0 mi North 11.5 mph - 0.00 in   Partly Cloudy
1:15 PM 55.4 °F - 44.6 °F 67% 30.29 in 10.0 mi North 11.5 mph - 0.00 in   Partly Cloudy
1:35 PM 55.4 °F - 44.6 °F 67% 30.29 in 10.0 mi North 12.7 mph - 0.00 in   Scattered Clouds
1:55 PM 55.4 °F - 44.6 °F 67% 30.29 in 10.0 mi NNE 15.0 mph 20.7 mph 0.00 in   Scattered Clouds
2:15 PM 55.4 °F - 44.6 °F 67% 30.29 in 10.0 mi NNE 10.4 mph - 0.00 in   Partly Cloudy
2:35 PM 55.4 °F - 44.6 °F 67% 30.30 in 10.0 mi NNE 8.1 mph - 0.00 in   Partly Cloudy
2:55 PM 55.4 °F - 44.6 °F 67% 30.30 in 10.0 mi NNE 9.2 mph - 0.00 in   Clear
3:15 PM 55.4 °F - 44.6 °F 67% 30.30 in 10.0 mi NNE 11.5 mph 16.1 mph 0.00 in   Clear
3:35 PM 55.4 °F - 44.6 °F 67% 30.31 in 10.0 mi NNE 11.5 mph 18.4 mph 0.00 in   Mostly Cloudy
3:55 PM 55.4 °F - 46.4 °F 72% 30.31 in 10.0 mi North 9.2 mph - 0.00 in   Overcast
4:15 PM 55.4 °F - 46.4 °F 72% 30.31 in 10.0 mi North 9.2 mph - 0.00 in   Overcast
4:35 PM 55.4 °F - 46.4 °F 72% 30.31 in 10.0 mi North 10.4 mph - 0.00 in   Overcast
4:55 PM 53.6 °F - 46.4 °F 77% 30.31 in 10.0 mi North 10.4 mph - 0.00 in   Overcast
5:15 PM 53.6 °F - 46.4 °F 77% 30.31 in 10.0 mi North 11.5 mph 16.1 mph 0.00 in   Overcast
5:35 PM 53.6 °F - 44.6 °F 72% 30.31 in 10.0 mi North 9.2 mph 16.1 mph 0.00 in   Overcast
5:55 PM 53.6 °F - 44.6 °F 72% 30.31 in 10.0 mi North 9.2 mph - 0.00 in   Overcast
6:15 PM 53.6 °F - 46.4 °F 77% 30.31 in 10.0 mi North 10.4 mph 17.3 mph 0.00 in   Overcast
6:55 PM 53.6 °F - 46.4 °F 77% 30.32 in 10.0 mi North 9.2 mph - 0.00 in   Overcast
7:15 PM 53.6 °F - 46.4 °F 77% 30.32 in 10.0 mi North 9.2 mph - 0.00 in   Overcast
7:35 PM 55.4 °F - 46.4 °F 72% 30.32 in 10.0 mi North 11.5 mph - 0.00 in   Overcast
7:55 PM 55.4 °F - 46.4 °F 72% 30.32 in 10.0 mi North 10.4 mph 17.3 mph 0.00 in   Overcast
8:15 PM 55.4 °F - 46.4 °F 72% 30.32 in 10.0 mi North 10.4 mph - 0.00 in   Overcast
8:55 PM 55.4 °F - 46.4 °F 72% 30.31 in 10.0 mi North 11.5 mph - 0.00 in   Overcast
9:15 PM 55.4 °F - 46.4 °F 72% 30.31 in 10.0 mi North 10.4 mph - 0.00 in   Overcast
9:35 PM 55.4 °F - 46.4 °F 72% 30.32 in 10.0 mi North 10.4 mph 17.3 mph 0.00 in   Overcast
9:55 PM 55.4 °F - 46.4 °F 72% 30.31 in 10.0 mi North 11.5 mph 18.4 mph 0.00 in   Overcast
10:15 PM 55.4 °F - 46.4 °F 72% 30.30 in 10.0 mi North 12.7 mph - 0.00 in   Overcast
10:35 PM 55.4 °F - 46.4 °F 72% 30.30 in 10.0 mi North 9.2 mph - 0.00 in   Overcast
10:55 PM 55.4 °F - 46.4 °F 72% 30.29 in 10.0 mi North 11.5 mph 16.1 mph 0.00 in   Overcast
11:15 PM 55.4 °F - 46.4 °F 72% 30.28 in 10.0 mi North 11.5 mph - 0.00 in   Overcast
11:35 PM 55.4 °F - 46.4 °F 72% 30.29 in 10.0 mi North 11.5 mph 18.4 mph 0.00 in   Overcast
11:55 PM 55.4 °F - 46.4 °F 72% 30.29 in 10.0 mi North 13.8 mph 24.2 mph 0.00 in   Overcast